DW6345 Murcia ES current weather conditions

sailwx.info

Wind from 248 at 2 knots gusting 6

Air temperature 11.7° C
Dewpoint 4.2° C

Last reported at 2016-Feb-09 08:49 UTC.
Time now 2016-Feb-09 09:51 UTC

Location: N 37°60' W 001°06'.
View on Google Maps.

See reports from other nearby stations

  
Tides and Currents Weather Stations Pressure Air Temp Water Temp Dewpoint Dewpoint Depression Visibility Wind Speed Wind Dir Waves Ship Positions
date/time (UTC)wind fromknots sea level pressurealtimeterstation pressurevisibilityair tempwater tempwave heightnotes
2016-Feb-09 08:49 248 2 gusting 6 11.7
2016-Feb-09 08:44 249 4 gusting 8 11.7
2016-Feb-09 08:39 270 5 gusting 8 11.7
2016-Feb-09 08:34 248 5 gusting 6 11.7
2016-Feb-09 08:29 270 5 gusting 6 11.7
2016-Feb-09 08:24 270 3 gusting 6 11.7
2016-Feb-09 08:19 315 2 gusting 6 11.7
2016-Feb-09 08:14 270 4 gusting 6 11.7
2016-Feb-09 08:09 268 5 gusting 6 11.1
2016-Feb-09 08:04 270 3 gusting 6 11.1
2016-Feb-09 07:59 268 4 gusting 6 11.1
2016-Feb-09 07:54 270 4 gusting 7 11.1
2016-Feb-09 07:49 248 4 gusting 7 10.6
2016-Feb-09 07:44 269 5 gusting 6 10.6
2016-Feb-09 07:39 270 4 gusting 6 10.6
2016-Feb-09 07:34 310 5 gusting 8 10.6
2016-Feb-09 07:29 249 5 gusting 8 10.6
2016-Feb-09 07:24 249 6 gusting 7 10.6
2016-Feb-09 07:19 270 4 gusting 8 10.6
2016-Feb-09 07:14 248 6 gusting 8 10.6
2016-Feb-09 07:09 267 4 gusting 7 10.6
2016-Feb-09 07:04 270 4 gusting 7 10.6
2016-Feb-09 06:59 270 3 gusting 6 10.6
2016-Feb-09 06:54 273 2 gusting 6 10.6
2016-Feb-09 06:49 248 5 gusting 6 10.6
2016-Feb-09 06:44 270 4 gusting 7 10.6
2016-Feb-09 06:39 269 2 gusting 7 10.6
2016-Feb-09 06:34 248 4 gusting 8 10.6
2016-Feb-09 06:29 206 3 gusting 6 10.6
2016-Feb-09 06:24 270 5 gusting 6 10.6
2016-Feb-09 06:19 270 4 gusting 7 10.6
2016-Feb-09 06:14 250 4 gusting 7 10.6
2016-Feb-09 06:09 268 3 gusting 8 10.6
2016-Feb-09 06:04 270 6 gusting 8 10.6
2016-Feb-09 05:59 270 4 gusting 8 10.6
2016-Feb-09 05:54 270 4 gusting 6 10.6
2016-Feb-09 05:49 270 5 gusting 6 10.6
2016-Feb-09 05:44 312 4 gusting 7 10.6
2016-Feb-09 05:39 270 6 gusting 7 10.6
2016-Feb-09 05:34 269 5 gusting 6 10.6
2016-Feb-09 05:29 270 4 gusting 6 11.1
2016-Feb-09 05:24 268 3 gusting 6 11.1
2016-Feb-09 05:19 270 3 gusting 6 11.1
2016-Feb-09 05:14 270 5 gusting 6 11.1
2016-Feb-09 05:09 292 4 gusting 8 11.1
2016-Feb-09 05:04 270 4 gusting 6 11.1
2016-Feb-09 04:59 11.1
2016-Feb-09 04:54 268 6 gusting 11 11.1
2016-Feb-09 04:49 268 5 gusting 8 11.1
2016-Feb-09 04:44 270 6 gusting 10 11.1
2016-Feb-09 04:39 270 5 gusting 7 11.1
2016-Feb-09 04:34 270 4 gusting 6 11.1
2016-Feb-09 04:29 270 4 gusting 6 11.1
2016-Feb-09 04:24 273 4 gusting 8 11.1
2016-Feb-09 04:19 274 5 gusting 8 11.7
2016-Feb-09 04:14 184 5 gusting 8 11.7
2016-Feb-09 04:09 248 5 gusting 7 11.7
2016-Feb-09 04:04 315 4 gusting 6 11.7
2016-Feb-09 03:59 270 3 gusting 7 11.7
2016-Feb-09 03:54 270 5 gusting 8 11.7
2016-Feb-09 03:49 312 6 gusting 10 11.7
2016-Feb-09 03:44 270 5 gusting 7 11.7
2016-Feb-09 03:39 270 5 gusting 6 12.2
2016-Feb-09 03:34 270 3 gusting 6 12.2
2016-Feb-09 03:29 270 5 gusting 6 12.2
2016-Feb-09 03:24 270 2 gusting 6 12.2
2016-Feb-09 03:19 270 2 gusting 6 11.7
2016-Feb-09 03:14 270 5 gusting 8 11.7
2016-Feb-09 03:09 268 4 gusting 6 11.7
2016-Feb-09 03:04 248 2 gusting 5 11.7
2016-Feb-09 02:59 270 3 gusting 6 11.7
2016-Feb-09 02:54 269 4 gusting 6 11.7
2016-Feb-09 02:49 270 4 gusting 6 11.7
2016-Feb-09 02:44 252 4 gusting 6 11.7
2016-Feb-09 02:39 251 3 gusting 6 11.7
2016-Feb-09 02:34 270 4 gusting 6 11.7
2016-Feb-09 02:29 270 1 gusting 6 11.7
2016-Feb-09 02:24 269 3 gusting 6 11.7
2016-Feb-09 02:19 315 3 gusting 6 12.2
2016-Feb-09 02:14 248 4 gusting 6 12.2
2016-Feb-09 02:09 270 2 gusting 5 12.2
2016-Feb-09 02:04 248 2 gusting 4 12.8
2016-Feb-09 01:59 249 2 gusting 2 12.8
2016-Feb-09 01:54 270 1 gusting 4 12.8
2016-Feb-09 01:49 270 2 gusting 4 12.8
2016-Feb-09 01:44 273 2 gusting 4 12.8
2016-Feb-09 01:39 270 1 gusting 2 12.8
2016-Feb-09 01:34 270 1 gusting 4 13.3
2016-Feb-09 01:29 270 2 gusting 5 13.3
2016-Feb-09 01:24 270 2 gusting 5 13.3
2016-Feb-09 01:19 273 1 gusting 5 13.3
2016-Feb-09 01:14 274 2 gusting 5 13.3
2016-Feb-09 01:09 311 3 gusting 5 13.3
2016-Feb-09 01:04 270 2 gusting 5 13.3
2016-Feb-09 00:59 270 2 gusting 5 13.3
2016-Feb-09 00:54 270 2 gusting 5 13.3
2016-Feb-09 00:49 268 2 gusting 5 13.3
2016-Feb-09 00:44 270 3 gusting 6 12.8
2016-Feb-09 00:39 270 2 gusting 5 12.8
2016-Feb-09 00:34 252 2 gusting 5 13.3
2016-Feb-09 00:29 248 2 gusting 5 13.3
2016-Feb-09 00:24 250 1 gusting 4 13.3
2016-Feb-09 00:19 270 0 gusting 5 13.3
2016-Feb-09 00:14 270 2 gusting 5 13.3
2016-Feb-09 00:09 270 1 gusting 5 13.3
2016-Feb-09 00:04 270 2 gusting 5 13.3
2016-Feb-08 23:59 249 2 gusting 6 13.3
2016-Feb-08 23:54 270 3 gusting 6 13.3
2016-Feb-08 23:49 270 2 gusting 5 13.3
2016-Feb-08 23:44 270 2 gusting 6 13.3
2016-Feb-08 23:39 270 3 gusting 6 13.3
2016-Feb-08 23:34 270 2 gusting 5 13.3
2016-Feb-08 23:29 273 2 gusting 5 13.3
2016-Feb-08 23:24 270 3 gusting 5 13.3
2016-Feb-08 23:19 270 2 gusting 6 13.3
2016-Feb-08 23:14 270 2 gusting 6 13.9
2016-Feb-08 23:09 270 2 gusting 5 13.9
2016-Feb-08 23:04 270 2 gusting 6 13.9
2016-Feb-08 22:59 249 3 gusting 6 13.9
2016-Feb-08 22:54 248 2 gusting 6 13.9
2016-Feb-08 22:49 180 3 gusting 5 14.4
2016-Feb-08 22:44 292 2 gusting 5 14.4
2016-Feb-08 22:39 248 2 gusting 5 14.4
2016-Feb-08 22:34 248 1 gusting 5 15.0
2016-Feb-08 22:29 248 1 gusting 2 15.0
2016-Feb-08 22:24 270 0 gusting 4 15.0
2016-Feb-08 22:20 270 1 gusting 4 15.6
2016-Feb-08 22:14 310 2 gusting 6 15.6
2016-Feb-08 22:10 315 1 gusting 5 15.6
2016-Feb-08 22:04 270 1 gusting 2 15.6
2016-Feb-08 21:59 310 2 gusting 6 15.6
2016-Feb-08 21:54 315 3 gusting 6 15.6
2016-Feb-08 21:49 272 2 gusting 6 15.6
2016-Feb-08 21:44 315 2 gusting 7 15.6
2016-Feb-08 21:39 315 3 gusting 6 15.6
2016-Feb-08 21:34 313 4 gusting 6 15.6
2016-Feb-08 21:29 270 2 gusting 6 15.6
2016-Feb-08 21:24 270 4 gusting 6 15.6
2016-Feb-08 21:19 270 3 gusting 5 15.6
2016-Feb-08 21:14 270 2 gusting 4 15.6
2016-Feb-08 21:10 270 3 gusting 5 16.1
2016-Feb-08 21:04 270 2 gusting 5 16.1
2016-Feb-08 20:59 313 2 gusting 5 16.1
2016-Feb-08 20:54 270 2 gusting 5 16.1
2016-Feb-08 20:50 249 2 gusting 5 16.1
2016-Feb-08 20:44 270 2 gusting 5 16.1
2016-Feb-08 20:40 270 1 gusting 5 16.1
2016-Feb-08 20:34 270 2 gusting 5 16.7
2016-Feb-08 20:29 273 2 gusting 5 16.7
2016-Feb-08 20:24 315 2 gusting 6 16.7
2016-Feb-08 20:20 312 1 gusting 5 16.7
2016-Feb-08 20:14 273 2 gusting 6 16.7
2016-Feb-08 20:09 310 1 gusting 6 17.2
2016-Feb-08 20:04 315 2 gusting 8 17.2
2016-Feb-08 19:59 315 4 gusting 8 17.2
2016-Feb-08 19:54 315 6 gusting 11 17.2
2016-Feb-08 19:50 270 3 gusting 8 17.2
2016-Feb-08 19:44 315 5 gusting 11 17.2
2016-Feb-08 19:40 312 5 gusting 12 17.2
2016-Feb-08 19:34 315 5 gusting 8 17.8
2016-Feb-08 19:30 270 5 gusting 11 17.8
2016-Feb-08 19:24 315 5 gusting 11 17.8
2016-Feb-08 19:20 274 6 gusting 12 17.8
2016-Feb-08 19:14 272 4 gusting 11 17.8
2016-Feb-08 19:10 315 7 gusting 14 17.8
2016-Feb-08 19:04 315 5 gusting 8 17.8
2016-Feb-08 18:59 315 4 gusting 11 17.8
2016-Feb-08 18:54 041 6 gusting 13 18.3
2016-Feb-08 18:50 273 6 gusting 13 18.3
2016-Feb-08 18:44 270 6 gusting 13 18.3
2016-Feb-08 18:40 315 4 gusting 10 18.3
2016-Feb-08 18:34 274 6 gusting 12 18.3
2016-Feb-08 18:30 315 8 gusting 12 18.3
2016-Feb-08 18:24 270 6 gusting 17 18.3
2016-Feb-08 18:20 042 7 gusting 17 18.3
2016-Feb-08 18:14 270 6 gusting 12 18.3
2016-Feb-08 18:10 045 6 gusting 13 18.3
2016-Feb-08 18:04 270 6 gusting 11 18.3
2016-Feb-08 17:59 270 4 gusting 10 18.3
2016-Feb-08 17:54 319 5 gusting 10 18.3
2016-Feb-08 17:50 045 4 gusting 8 18.3
2016-Feb-08 17:44 045 4 gusting 7 18.3
2016-Feb-08 17:40 315 4 gusting 6 18.9
2016-Feb-08 17:34 315 4 gusting 6 18.9
2016-Feb-08 17:30 317 2 gusting 10 18.9
2016-Feb-08 17:24 315 6 gusting 10 18.9
2016-Feb-08 17:20 318 4 gusting 8 18.9
2016-Feb-08 17:14 315 2 gusting 8 19.4
2016-Feb-08 17:10 045 5 gusting 8 19.4
2016-Feb-08 17:04 045 6 gusting 8 19.4
2016-Feb-08 16:59 045 4 gusting 8 19.4
2016-Feb-08 16:54 045 5 gusting 6 20.0
2016-Feb-08 16:50 045 4 gusting 8 20.0
2016-Feb-08 16:44 225 6 gusting 13 20.0
2016-Feb-08 16:40 270 4 gusting 8 20.0
2016-Feb-08 16:34 315 5 gusting 10 20.0
2016-Feb-08 16:30 274 7 gusting 12 20.0
2016-Feb-08 16:24 270 5 gusting 12 20.0
2016-Feb-08 16:20 315 7 gusting 13 20.0
2016-Feb-08 16:14 045 6 gusting 13 20.0
2016-Feb-08 16:10 313 6 gusting 13 20.0
2016-Feb-08 16:04 315 4 gusting 14 20.0
2016-Feb-08 15:59 041 8 gusting 17 20.0
2016-Feb-08 15:54 315 9 gusting 13 20.6
2016-Feb-08 15:50 045 6 gusting 12 20.6
2016-Feb-08 15:44 322 7 gusting 13 20.6
2016-Feb-08 15:40 063 5 gusting 10 20.6
2016-Feb-08 15:34 045 4 gusting 10 20.6
2016-Feb-08 15:30 045 3 gusting 10 20.6
2016-Feb-08 15:24 045 6 gusting 10 20.6
2016-Feb-08 15:20 045 5 gusting 7 20.6
2016-Feb-08 15:14 315 5 gusting 8 20.0
2016-Feb-08 15:10 271 2 gusting 6 20.0
2016-Feb-08 15:04 270 4 gusting 8 19.4
2016-Feb-08 14:59 292 6 gusting 11 19.4
2016-Feb-08 14:54 315 4 gusting 8 19.4
2016-Feb-08 14:50 045 2 gusting 11 19.4
2016-Feb-08 14:44 270 5 gusting 11 19.4
2016-Feb-08 14:40 045 3 gusting 10 19.4
2016-Feb-08 14:34 038 5 gusting 11 20.0
2016-Feb-08 14:30 270 5 gusting 13 20.0
2016-Feb-08 14:24 090 8 gusting 14 19.4
2016-Feb-08 14:20 036 7 gusting 14 20.0
2016-Feb-08 14:14 045 7 gusting 14 20.0
2016-Feb-08 14:10 270 5 gusting 13 20.0
2016-Feb-08 14:04 268 8 gusting 15 20.0
2016-Feb-08 13:59 270 8 gusting 14 20.0
2016-Feb-08 13:54 275 10 gusting 15 20.0
2016-Feb-08 13:50 274 6 gusting 13 20.0
2016-Feb-08 13:44 270 8 gusting 13 20.0
2016-Feb-08 13:40 273 7 gusting 13 20.0
2016-Feb-08 13:35 315 6 gusting 13 20.0
2016-Feb-08 13:30 045 5 gusting 13 20.0
2016-Feb-08 13:24 045 4 gusting 17 19.4
2016-Feb-08 13:20 272 8 gusting 18 19.4
2016-Feb-08 13:15 270 6 gusting 15 20.0
2016-Feb-08 13:10 270 8 gusting 15 20.0
2016-Feb-08 13:05 270 5 gusting 13 20.0
2016-Feb-08 12:59 272 6 gusting 14 20.0
2016-Feb-08 12:54 041 6 gusting 15 20.0
2016-Feb-08 12:50 292 10 gusting 15 20.0
2016-Feb-08 12:45 315 8 gusting 14 19.4
2016-Feb-08 12:40 315 8 gusting 15 19.4
2016-Feb-08 12:34 315 5 gusting 17 19.4
2016-Feb-08 12:30 270 8 gusting 13 19.4
2016-Feb-08 12:24 270 6 gusting 13 19.4
2016-Feb-08 12:20 312 6 gusting 13 19.4
2016-Feb-08 12:15 270 6 gusting 13 19.4
2016-Feb-08 12:10 270 6 gusting 13 18.9
2016-Feb-08 12:04 045 8 gusting 14 18.9
2016-Feb-08 12:00 312 9 gusting 13 18.9
2016-Feb-08 11:54 270 7 gusting 15 18.9
2016-Feb-08 11:50 270 8 gusting 15 18.3
2016-Feb-08 11:44 270 7 gusting 13 18.3
2016-Feb-08 11:40 045 7 gusting 14 17.8
2016-Feb-08 11:35 315 7 gusting 13 17.8
2016-Feb-08 11:30 270 6 gusting 11 18.3
2016-Feb-08 11:24 315 6 gusting 13 18.3
2016-Feb-08 11:20 270 6 gusting 13 18.3
2016-Feb-08 11:15 312 2 gusting 7 17.8
2016-Feb-08 11:10 314 2 gusting 8 17.8
2016-Feb-08 11:05 272 5 gusting 10 17.8
2016-Feb-08 10:59 270 5 gusting 10 17.8
2016-Feb-08 10:54 273 5 gusting 7 17.8
2016-Feb-08 10:50 249 1 gusting 7 17.8
2016-Feb-08 10:45 270 5 gusting 8 17.2
2016-Feb-08 10:40 270 1 gusting 8 17.2
2016-Feb-08 10:35 270 2 gusting 8 17.2
2016-Feb-08 10:30 315 4 gusting 8 17.2
2016-Feb-08 10:25 315 5 gusting 7 16.7
2016-Feb-08 10:20 270 2 gusting 6 16.7
2016-Feb-08 10:15 272 3 gusting 8 16.1
2016-Feb-08 10:10 270 3 gusting 6 16.1
2016-Feb-08 10:05 311 4 gusting 6 16.1
2016-Feb-08 10:00 315 4 gusting 6 15.6
2016-Feb-08 09:54 273 1 gusting 6 15.6
2016-Feb-08 09:50 270 2 gusting 7 15.0
2016-Feb-08 09:45 311 3 gusting 6 15.0
2016-Feb-08 09:40 270 3 gusting 6 14.4
2016-Feb-08 09:35 250 3 gusting 5 14.4
2016-Feb-08 09:30 309 2 gusting 5 13.9
2016-Feb-08 09:24 315 1 gusting 6 13.9
2016-Feb-08 09:20 270 5 gusting 6 13.9
2016-Feb-08 09:15 315 5 gusting 6 13.9
2016-Feb-08 09:10 270 4 gusting 6 13.3
2016-Feb-08 09:05 313 4 gusting 6 13.3
2016-Feb-08 09:00 313 4 gusting 7 13.3
2016-Feb-08 08:55 249 2 gusting 6 13.3
2016-Feb-08 08:50 041 4 gusting 6 13.3
2016-Feb-08 08:45 312 4 gusting 6 13.3
2016-Feb-08 08:40 270 2 gusting 5 12.8
2016-Feb-08 08:35 273 2 gusting 6 12.8
2016-Feb-08 08:30 270 5 gusting 6 12.8
2016-Feb-08 08:25 270 5 gusting 6 12.2
2016-Feb-08 08:20 271 2 gusting 5 12.2
2016-Feb-08 08:15 315 2 gusting 4 12.2
2016-Feb-08 08:10 273 0 gusting 2 11.7
2016-Feb-08 08:05 270 1 gusting 2 11.7
2016-Feb-08 08:00 270 0 gusting 1 11.7
2016-Feb-08 07:55 180 0 gusting 1 11.7
2016-Feb-08 07:50 270 0 gusting 2 11.1
2016-Feb-08 07:45 270 1 gusting 4 11.1
2016-Feb-08 07:40 269 1 gusting 5 11.1
2016-Feb-08 07:35 270 2 gusting 5 11.1
2016-Feb-08 07:30 269 2 gusting 5 11.1
2016-Feb-08 07:25 183 2 gusting 5 11.1
2016-Feb-08 07:20 248 3 gusting 5 11.1
2016-Feb-08 07:15 248 2 gusting 5 11.1
2016-Feb-08 07:10 268 0 gusting 2 11.1
2016-Feb-08 07:05 225 2 gusting 4 11.1
2016-Feb-08 07:00 180 0 gusting 2 11.1
2016-Feb-08 06:55 180 2 gusting 4 11.1
2016-Feb-08 06:50 180 1 gusting 2 11.1
2016-Feb-08 06:45 248 1 gusting 4 11.1
2016-Feb-08 06:40 250 2 gusting 2 11.1
2016-Feb-08 06:35 270 1 gusting 5 11.1
2016-Feb-08 06:30 270 2 gusting 4 11.1
2016-Feb-08 06:25 186 2 gusting 4 11.1
2016-Feb-08 06:20 269 2 gusting 4 11.1
2016-Feb-08 06:15 270 1 gusting 4 11.1
2016-Feb-08 06:10 270 0 gusting 4 11.1
2016-Feb-08 06:05 270 2 gusting 4 11.1
2016-Feb-08 06:00 268 2 gusting 5 11.1
2016-Feb-08 05:55 270 2 gusting 5 11.1
2016-Feb-08 05:50 248 2 gusting 5 11.7
2016-Feb-08 05:45 250 4 gusting 6 11.7
2016-Feb-08 05:40 248 2 gusting 5 11.7
2016-Feb-08 05:35 270 2 gusting 5 12.2
2016-Feb-08 05:30 248 1 gusting 5 12.2
2016-Feb-08 05:25 270 2 gusting 4 12.2
2016-Feb-08 05:20 315 0 gusting 6 12.2
2016-Feb-08 05:15 315 2 gusting 10 12.2
2016-Feb-08 05:10 315 2 gusting 10 12.2
2016-Feb-08 05:05 313 2 gusting 6 12.2
2016-Feb-08 05:00 310 2 gusting 8 12.2
2016-Feb-08 04:55 315 4 gusting 8 12.2
2016-Feb-08 04:50 315 0 gusting 2 12.8
2016-Feb-08 04:45 275 1 gusting 5 12.8
2016-Feb-08 04:40 272 2 gusting 5 12.8
2016-Feb-08 04:35 273 2 gusting 7 12.8
2016-Feb-08 04:30 270 2 gusting 7 12.8
2016-Feb-08 04:25 315 2 gusting 6 12.2
2016-Feb-08 04:20 270 2 gusting 4 12.2
2016-Feb-08 04:15 315 1 gusting 6 12.2
2016-Feb-08 04:10 315 0 gusting 5 12.2
2016-Feb-08 04:05 313 2 gusting 5 11.7
2016-Feb-08 04:00 315 0 gusting 2 11.7
2016-Feb-08 03:55 307 1 gusting 4 11.7
2016-Feb-08 03:50 174 2 gusting 4 11.7
2016-Feb-08 03:45 267 11.7
2016-Feb-08 03:40 135 12.2
2016-Feb-08 03:35 315 0 gusting 1 12.2
2016-Feb-08 03:30 135 0 gusting 4 12.2
2016-Feb-08 03:25 248 2 gusting 4 12.2
2016-Feb-08 03:20 268 2 gusting 4 12.8
2016-Feb-08 03:15 313 0 gusting 2 12.8
2016-Feb-08 03:10 270 1 gusting 5 12.8
2016-Feb-08 03:05 248 2 gusting 5 12.2
2016-Feb-08 03:00 248 3 gusting 5 12.8
2016-Feb-08 02:55 248 3 gusting 6 12.8
2016-Feb-08 02:50 248 3 gusting 5 12.8
2016-Feb-08 02:45 248 2 gusting 2 12.8
2016-Feb-08 02:40 270 0 gusting 1 12.8
2016-Feb-08 02:35 319 0 gusting 2 12.8
2016-Feb-08 02:30 315 2 gusting 5 12.8
2016-Feb-08 02:25 270 0 gusting 5 12.8
2016-Feb-08 02:20 248 4 gusting 6 12.8
2016-Feb-08 02:15 248 3 gusting 6 13.3
2016-Feb-08 02:10 244 0 gusting 1 13.3
2016-Feb-08 02:05 270 0 gusting 2 13.3
2016-Feb-08 02:00 274 2 gusting 4 13.3
2016-Feb-08 01:55 270 2 gusting 4 13.3
2016-Feb-08 01:50 315 2 gusting 5 13.3
2016-Feb-08 01:45 315 2 gusting 6 13.3
2016-Feb-08 01:40 315 2 gusting 6 13.3
2016-Feb-08 01:35 315 4 gusting 6 12.8
2016-Feb-08 01:30 315 3 gusting 6 12.8
2016-Feb-08 01:25 315 1 gusting 2 12.8
2016-Feb-08 01:20 270 0 gusting 2 12.2
2016-Feb-08 01:15 180 1 gusting 2 12.2
2016-Feb-08 01:10 180 0 gusting 4 12.2
2016-Feb-08 01:05 045 0 gusting 1 12.8
2016-Feb-08 01:00 043 0 gusting 1 12.8
2016-Feb-08 00:55 270 0 gusting 2 12.8
2016-Feb-08 00:50 270 2 gusting 4 12.2
2016-Feb-08 00:45 270 2 gusting 5 12.2
2016-Feb-08 00:40 270 4 gusting 6 12.2
2016-Feb-08 00:35 248 2 gusting 6 12.2
2016-Feb-08 00:30 270 2 gusting 5 12.2
2016-Feb-08 00:25 270 2 gusting 5 12.2
2016-Feb-08 00:20 249 1 gusting 6 12.8
2016-Feb-08 00:15 251 2 gusting 6 12.2
2016-Feb-08 00:10 312 0 gusting 5 12.2
2016-Feb-08 00:05 270 2 gusting 6 12.2
2016-Feb-08 00:00 315 2 gusting 6 12.2
2016-Feb-07 23:55 315 1 gusting 5 12.2
2016-Feb-07 23:50 314 1 gusting 4 12.2
2016-Feb-07 23:45 315 0 gusting 2 12.2
2016-Feb-07 23:40 315 0 gusting 2 12.2
2016-Feb-07 23:35 184 0 gusting 2 12.2
2016-Feb-07 23:30 270 1 gusting 2 12.2
2016-Feb-07 23:25 270 1 gusting 2 12.2
2016-Feb-07 23:20 266 0 gusting 2 12.2
2016-Feb-07 23:15 274 1 gusting 2 12.2
2016-Feb-07 23:10 270 1 gusting 2 12.8
2016-Feb-07 23:05 315 0 gusting 2 12.8
2016-Feb-07 23:00 315 1 gusting 2 12.8
2016-Feb-07 22:55 275 2 gusting 4 12.8
2016-Feb-07 22:50 270 1 gusting 4 12.8
2016-Feb-07 22:45 270 1 gusting 4 12.8
2016-Feb-07 22:40 356 0 gusting 2 12.8
2016-Feb-07 22:35 313 1 gusting 2 12.8
2016-Feb-07 22:30 315 1 gusting 2 12.8
2016-Feb-07 22:25 273 1 gusting 2 13.3
2016-Feb-07 22:20 270 0 gusting 4 13.3
2016-Feb-07 22:15 270 1 gusting 4 13.3
2016-Feb-07 22:10 272 1 gusting 4 12.8
2016-Feb-07 22:05 248 2 gusting 2 12.8
2016-Feb-07 22:00 248 2 gusting 4 12.8
2016-Feb-07 21:55 180 0 gusting 1 13.3
2016-Feb-07 21:50 270 13.3
2016-Feb-07 21:45 270 0 gusting 1 13.3
2016-Feb-07 21:40 270 0 gusting 1 13.3
2016-Feb-07 21:35 267 0 gusting 2 13.3
2016-Feb-07 21:30 270 1 gusting 4 13.3
2016-Feb-07 21:25 266 1 gusting 5 13.3
2016-Feb-07 21:20 268 1 gusting 2 13.9
2016-Feb-07 21:15 315 0 gusting 1 13.9
2016-Feb-07 21:10 315 0 gusting 1 13.9
2016-Feb-07 21:05 248 0 gusting 1 14.4
2016-Feb-07 21:00 248 0 gusting 2 14.4
2016-Feb-07 20:55 270 2 gusting 2 14.4
2016-Feb-07 20:50 270 0 gusting 1 14.4
2016-Feb-07 20:45 276 0 gusting 1 14.4
2016-Feb-07 20:40 270 0 gusting 5 14.4
2016-Feb-07 20:35 313 1 gusting 6 14.4
2016-Feb-07 20:30 270 3 gusting 6 14.4
2016-Feb-07 20:25 270 2 gusting 5 14.4
2016-Feb-07 20:20 250 2 gusting 5 13.9
2016-Feb-07 20:15 270 1 gusting 4 13.9
2016-Feb-07 20:10 180 0 gusting 2 13.9
2016-Feb-07 20:05 045 1 gusting 2 13.9
2016-Feb-07 20:00 046 0 gusting 5 13.9
2016-Feb-07 19:55 045 1 gusting 5 13.9
2016-Feb-07 19:50 045 2 gusting 5 13.9
2016-Feb-07 19:45 051 0 gusting 1 13.9
2016-Feb-07 19:40 050 0 gusting 1 14.4
2016-Feb-07 19:35 090 0 gusting 1 14.4
2016-Feb-07 19:30 180 0 gusting 1 14.4
2016-Feb-07 19:25 180 0 gusting 2 15.0
2016-Feb-07 19:20 180 0 gusting 2 15.0
2016-Feb-07 19:15 141 0 gusting 1 15.0
2016-Feb-07 19:10 249 0 gusting 4 15.6
2016-Feb-07 19:05 315 2 gusting 4 15.6
2016-Feb-07 19:00 315 1 gusting 5 15.6
2016-Feb-07 18:55 315 2 gusting 6 15.6
2016-Feb-07 18:50 045 2 gusting 5 15.6
2016-Feb-07 18:45 045 2 gusting 5 15.6
2016-Feb-07 18:40 315 1 gusting 4 16.1
2016-Feb-07 18:35 315 1 gusting 5 16.1
2016-Feb-07 18:30 315 1 gusting 4 16.1
2016-Feb-07 18:25 310 1 gusting 4 16.1
2016-Feb-07 18:20 272 1 gusting 4 16.1
2016-Feb-07 18:15 315 0 gusting 2 16.1
2016-Feb-07 18:10 310 0 gusting 0 16.1
2016-Feb-07 18:05 135 16.7
2016-Feb-07 18:00 135 16.7
2016-Feb-07 17:55 315 0 gusting 5 16.7
2016-Feb-07 17:50 276 1 gusting 6 16.7
2016-Feb-07 17:45 270 1 gusting 5 16.7
2016-Feb-07 17:40 307 1 gusting 5 16.7
2016-Feb-07 17:35 315 2 gusting 7 17.2
2016-Feb-07 17:30 355 2 gusting 11 17.2
2016-Feb-07 17:25 270 4 gusting 13 17.2
2016-Feb-07 17:20 313 5 gusting 11 17.2
2016-Feb-07 17:15 315 6 gusting 14 17.2
2016-Feb-07 17:10 315 7 gusting 17 17.2
2016-Feb-07 17:05 312 6 gusting 17 17.8
2016-Feb-07 17:00 042 7 gusting 13 17.8
2016-Feb-07 16:55 315 6 gusting 13 17.8
2016-Feb-07 16:50 310 8 gusting 19 17.8
2016-Feb-07 16:45 270 11 gusting 19 17.8
2016-Feb-07 16:40 273 7 gusting 15 17.8
2016-Feb-07 16:35 270 11 gusting 17 17.8
2016-Feb-07 16:30 274 8 gusting 19 17.8
2016-Feb-07 16:25 314 8 gusting 17 17.8
2016-Feb-07 16:20 294 13 gusting 20 17.8
2016-Feb-07 16:15 315 10 gusting 18 17.8
2016-Feb-07 16:10 274 6 gusting 14 17.8
2016-Feb-07 16:05 274 11 gusting 20 17.8
2016-Feb-07 16:00 270 13 gusting 20 17.8
2016-Feb-07 15:55 312 10 gusting 15 17.8
2016-Feb-07 15:50 273 8 gusting 18 17.8
2016-Feb-07 15:45 270 11 gusting 18 17.8
2016-Feb-07 15:40 315 10 gusting 19 18.3
2016-Feb-07 15:35 315 6 gusting 22 17.8
2016-Feb-07 15:30 315 13 gusting 20 17.8
2016-Feb-07 15:25 270 11 gusting 19 17.8
2016-Feb-07 15:20 315 6 gusting 13 17.8
2016-Feb-07 15:15 273 8 gusting 15 17.8
2016-Feb-07 15:10 315 7 gusting 14 17.8
2016-Feb-07 15:05 315 7 gusting 13 17.8
2016-Feb-07 15:00 273 8 gusting 18 17.8
2016-Feb-07 14:55 312 13 gusting 22 17.8
2016-Feb-07 14:50 270 11 gusting 22 17.8
2016-Feb-07 14:45 045 9 gusting 19 17.8
2016-Feb-07 14:40 045 11 gusting 21 18.3
2016-Feb-07 14:35 270 6 gusting 17 18.3
2016-Feb-07 14:30 314 6 gusting 18 18.3
2016-Feb-07 14:25 311 10 gusting 22 17.8
2016-Feb-07 14:20 311 14 gusting 22 17.8
2016-Feb-07 14:15 315 6 gusting 19 18.3
2016-Feb-07 14:10 045 10 gusting 19 17.8
2016-Feb-07 14:05 272 7 gusting 18 17.8
2016-Feb-07 14:00 315 7 gusting 19 17.8
2016-Feb-07 13:55 274 12 gusting 26 17.8
2016-Feb-07 13:50 274 10 gusting 20 17.8
2016-Feb-07 13:45 274 13 gusting 19 17.8
2016-Feb-07 13:40 275 11 gusting 18 17.2
2016-Feb-07 13:35 315 12 gusting 25 17.2
2016-Feb-07 13:30 270 14 gusting 26 17.8
2016-Feb-07 13:25 270 12 gusting 20 17.8
2016-Feb-07 13:20 310 14 gusting 27 17.8
2016-Feb-07 13:15 315 12 gusting 19 17.2
2016-Feb-07 13:10 273 10 gusting 19 17.2
2016-Feb-07 13:05 309 11 gusting 19 17.2
2016-Feb-07 13:00 315 10 gusting 22 17.2
2016-Feb-07 12:55 315 10 gusting 26 17.2
2016-Feb-07 12:50 315 11 gusting 24 17.2
2016-Feb-07 12:45 315 12 gusting 24 17.2
2016-Feb-07 12:40 315 13 gusting 28 16.7
2016-Feb-07 12:35 271 10 gusting 25 16.7
2016-Feb-07 12:30 315 12 gusting 20 16.7
2016-Feb-07 12:25 315 10 gusting 24 16.7
2016-Feb-07 12:20 274 5 gusting 18 16.7
2016-Feb-07 12:15 270 8 gusting 19 16.7
2016-Feb-07 12:10 275 11 gusting 21 16.7
2016-Feb-07 12:05 315 16 gusting 25 16.7
2016-Feb-07 12:00 274 14 gusting 27 16.1
2016-Feb-07 11:55 270 8 gusting 18 16.1
2016-Feb-07 11:50 311 12 gusting 21 16.1
2016-Feb-07 11:45 272 10 gusting 22 16.1
2016-Feb-07 11:40 272 14 gusting 25 16.1
2016-Feb-07 11:35 315 10 gusting 22 16.1
2016-Feb-07 11:30 045 7 gusting 19 16.1
2016-Feb-07 11:25 270 11 gusting 19 16.1
2016-Feb-07 11:20 270 11 gusting 30 16.1
2016-Feb-07 11:15 315 13 gusting 21 16.1
2016-Feb-07 11:10 315 8 gusting 18 16.1
2016-Feb-07 11:05 315 13 gusting 25 16.1
2016-Feb-07 11:00 273 9 gusting 17 15.6
2016-Feb-07 10:55 041 8 gusting 13 15.6
2016-Feb-07 10:50 045 6 gusting 12 15.6
2016-Feb-07 10:45 039 7 gusting 13 15.0
2016-Feb-07 10:40 315 6 gusting 13 15.0
2016-Feb-07 10:35 275 8 gusting 17 15.0
2016-Feb-07 10:30 315 13 gusting 18 15.0
2016-Feb-07 10:25 319 10 gusting 18 15.0
2016-Feb-07 10:20 040 12 gusting 20 15.0
2016-Feb-07 10:15 041 13 gusting 22 15.0
2016-Feb-07 10:10 045 9 gusting 22 15.0
2016-Feb-07 10:05 045 15 gusting 27 15.0
2016-Feb-07 10:00 313 12 gusting 26 15.0
2016-Feb-07 09:55 090 18 gusting 28 15.0
2016-Feb-07 09:50 274 8 gusting 19 15.0
2016-Feb-07 09:45 045 13 gusting 25 14.4
2016-Feb-07 09:40 315 12 gusting 21 14.4
2016-Feb-07 09:35 045 10 gusting 25 14.4
2016-Feb-07 09:30 045 15 gusting 26 14.4
2016-Feb-07 09:25 273 11 gusting 22 14.4
2016-Feb-07 09:20 042 14 gusting 22 14.4
2016-Feb-07 09:15 045 12 gusting 22 14.4
2016-Feb-07 09:10 045 10 gusting 19 14.4
2016-Feb-07 09:05 273 11 gusting 22 14.4
2016-Feb-07 09:00 270 13 gusting 24 14.4